TimeEDT,TemperatureF,Dew PointF,Humidity,Sea Level PressureIn,VisibilityMPH,Wind Direction,Wind SpeedMPH,Gust SpeedMPH,PrecipitationIn,Events,Conditions,WindDirDegrees,DateUTC
12:16 AM,72.1,64.8,78,30.27,10.0,SE,3.5,-,N/A,,Clear,140,2013-07-16 04:16:00
12:36 AM,72.5,65.1,78,30.27,10.0,SSE,5.8,-,N/A,,Clear,150,2013-07-16 04:36:00
12:56 AM,73.0,65.3,77,30.27,10.0,SSE,4.6,-,N/A,,Clear,160,2013-07-16 04:56:00
1:16 AM,72.5,65.5,79,30.27,10.0,SSE,3.5,-,N/A,,Clear,150,2013-07-16 05:16:00
1:36 AM,71.8,65.3,80,30.27,10.0,Calm,Calm,-,N/A,,Clear,0,2013-07-16 05:36:00
1:56 AM,71.6,64.8,79,30.27,10.0,SSE,4.6,-,N/A,,Clear,150,2013-07-16 05:56:00
2:15 AM,72.0,64.6,77,30.27,10.0,SSE,5.8,-,N/A,,Clear,160,2013-07-16 06:15:00
2:36 AM,71.6,64.4,78,30.27,10.0,SSE,4.6,-,N/A,,Clear,160,2013-07-16 06:36:00
2:56 AM,71.6,64.2,77,30.27,10.0,SSE,5.8,-,N/A,,Clear,160,2013-07-16 06:56:00
3:15 AM,71.6,64.0,77,30.27,10.0,SSE,6.9,-,N/A,,Clear,160,2013-07-16 07:15:00
3:36 AM,71.6,64.0,77,30.27,10.0,South,6.9,-,N/A,,Clear,170,2013-07-16 07:36:00
3:56 AM,71.1,64.4,79,30.27,10.0,South,8.1,-,N/A,,Clear,170,2013-07-16 07:56:00
4:15 AM,70.9,64.4,80,30.27,10.0,South,8.1,-,N/A,,Clear,170,2013-07-16 08:15:00
4:36 AM,70.7,64.2,80,30.27,10.0,South,6.9,-,N/A,,Clear,170,2013-07-16 08:36:00
4:56 AM,70.7,63.7,78,30.27,10.0,South,5.8,-,N/A,,Clear,170,2013-07-16 08:56:00
5:15 AM,70.3,63.5,79,30.27,10.0,SSE,5.8,-,N/A,,Clear,160,2013-07-16 09:15:00
5:36 AM,70.3,63.0,77,30.27,10.0,SSE,4.6,-,N/A,,Clear,160,2013-07-16 09:36:00
5:56 AM,70.0,62.8,78,30.28,10.0,SSE,4.6,-,N/A,,Scattered Clouds,160,2013-07-16 09:56:00
6:15 AM,70.0,62.6,77,30.28,10.0,South,4.6,-,N/A,,Mostly Cloudy,180,2013-07-16 10:15:00
6:36 AM,70.3,62.8,77,30.28,10.0,South,4.6,-,N/A,,Overcast,170,2013-07-16 10:36:00
6:56 AM,71.1,63.0,75,30.28,10.0,South,3.5,-,N/A,,Overcast,190,2013-07-16 10:56:00
7:15 AM,70.7,64.0,79,30.28,10.0,SSW,3.5,-,N/A,,Overcast,200,2013-07-16 11:15:00
7:36 AM,71.2,64.6,79,30.28,10.0,Calm,Calm,-,N/A,,Scattered Clouds,0,2013-07-16 11:36:00
7:56 AM,72.9,66.2,80,30.28,10.0,Calm,Calm,-,N/A,,Clear,0,2013-07-16 11:56:00
8:15 AM,75.6,67.3,75,30.28,10.0,Calm,Calm,-,N/A,,Clear,0,2013-07-16 12:15:00
8:36 AM,78.3,66.2,66,30.28,10.0,Calm,Calm,-,N/A,,Clear,0,2013-07-16 12:36:00
8:56 AM,79.7,69.3,70,30.28,10.0,Calm,Calm,-,N/A,,Scattered Clouds,0,2013-07-16 12:56:00
9:15 AM,79.7,69.3,70,30.28,10.0,Calm,Calm,-,N/A,,Mostly Cloudy,0,2013-07-16 13:15:00
9:36 AM,81.1,69.3,67,30.28,10.0,Calm,Calm,-,N/A,,Mostly Cloudy,0,2013-07-16 13:36:00
9:55 AM,82.2,66.4,59,30.28,10.0,South,3.5,-,N/A,,Scattered Clouds,180,2013-07-16 13:55:00
10:16 AM,81.1,66.7,61,30.28,10.0,SSE,4.6,-,N/A,,Scattered Clouds,160,2013-07-16 14:16:00
10:36 AM,81.7,66.4,60,30.28,10.0,SSW,5.8,-,N/A,,Clear,200,2013-07-16 14:36:00
10:55 AM,82.2,63.0,52,30.27,10.0,SW,3.5,-,N/A,,Clear,230,2013-07-16 14:55:00
11:16 AM,81.5,64.6,56,30.27,10.0,West,5.8,-,N/A,,Clear,270,2013-07-16 15:16:00
11:36 AM,82.8,64.4,54,30.27,10.0,West,4.6,-,N/A,,Clear,260,2013-07-16 15:36:00
11:55 AM,84.2,63.1,49,30.27,10.0,West,5.8,-,N/A,,Clear,260,2013-07-16 15:55:00
12:16 PM,85.1,63.9,49,30.26,10.0,West,4.6,-,N/A,,Clear,260,2013-07-16 16:16:00
12:36 PM,85.8,61.2,43,30.26,10.0,WSW,3.5,-,N/A,,Clear,240,2013-07-16 16:36:00
12:55 PM,86.0,61.7,44,30.25,10.0,WSW,8.1,-,N/A,,Clear,240,2013-07-16 16:55:00
1:16 PM,86.5,62.4,44,30.25,10.0,West,9.2,-,N/A,,Clear,270,2013-07-16 17:16:00
1:36 PM,86.7,62.6,44,30.25,10.0,West,9.2,-,N/A,,Clear,270,2013-07-16 17:36:00
1:55 PM,86.4,61.7,43,30.25,10.0,West,13.8,18.4,N/A,,Clear,260,2013-07-16 17:55:00
2:16 PM,86.4,62.8,45,30.25,10.0,West,15.0,18.4,N/A,,Clear,270,2013-07-16 18:16:00
2:36 PM,86.4,63.3,46,30.25,10.0,West,11.5,-,N/A,,Clear,270,2013-07-16 18:36:00
2:56 PM,85.6,63.0,46,30.24,10.0,West,11.5,16.1,N/A,,Clear,260,2013-07-16 18:56:00
3:16 PM,85.5,64.6,49,30.24,10.0,WSW,10.4,18.4,N/A,,Clear,250,2013-07-16 19:16:00
3:36 PM,85.5,65.1,50,30.23,10.0,WSW,9.2,18.4,N/A,,Clear,250,2013-07-16 19:36:00
3:56 PM,85.5,66.6,53,30.22,10.0,West,10.4,16.1,N/A,,Clear,260,2013-07-16 19:56:00
4:16 PM,85.5,66.9,54,30.22,10.0,WSW,9.2,-,N/A,,Clear,250,2013-07-16 20:16:00
4:35 PM,85.8,66.7,53,30.22,10.0,WSW,11.5,16.1,N/A,,Clear,250,2013-07-16 20:35:00
4:56 PM,84.9,67.3,55,30.22,10.0,West,9.2,-,N/A,,Clear,260,2013-07-16 20:56:00
5:16 PM,84.4,68.2,58,30.23,10.0,WSW,9.2,16.1,N/A,,Clear,250,2013-07-16 21:16:00
5:35 PM,84.9,68.2,57,30.22,10.0,WSW,12.7,19.6,N/A,,Clear,250,2013-07-16 21:35:00
5:56 PM,84.4,68.7,59,30.22,10.0,WSW,10.4,20.7,N/A,,Scattered Clouds,240,2013-07-16 21:56:00
6:16 PM,82.6,68.5,62,30.21,10.0,WSW,10.4,18.4,N/A,,Clear,240,2013-07-16 22:16:00
6:35 PM,81.9,69.1,65,30.20,10.0,SW,10.4,17.3,N/A,,Clear,230,2013-07-16 22:35:00
6:56 PM,80.8,69.6,69,30.19,10.0,WSW,10.4,17.3,N/A,,Clear,240,2013-07-16 22:56:00
7:16 PM,80.8,69.8,69,30.19,10.0,WSW,9.2,16.1,N/A,,Clear,240,2013-07-16 23:16:00
7:35 PM,82.4,69.8,66,30.19,10.0,WSW,12.7,16.1,N/A,,Clear,240,2013-07-16 23:35:00
7:56 PM,81.5,70.0,68,30.19,10.0,WSW,9.2,16.1,N/A,,Clear,250,2013-07-16 23:56:00
8:16 PM,81.5,69.8,67,30.20,10.0,WSW,8.1,-,N/A,,Clear,250,2013-07-17 00:16:00
8:35 PM,80.6,70.0,70,30.20,10.0,WSW,9.2,-,N/A,,Clear,250,2013-07-17 00:35:00
8:56 PM,79.9,70.2,72,30.20,10.0,WSW,9.2,-,N/A,,Clear,250,2013-07-17 00:56:00
9:16 PM,79.5,70.7,74,30.19,10.0,WSW,10.4,16.1,N/A,,Clear,240,2013-07-17 01:16:00
9:35 PM,78.8,70.9,77,30.19,10.0,WSW,8.1,17.3,N/A,,Clear,240,2013-07-17 01:35:00
9:56 PM,77.4,71.2,81,30.18,10.0,SW,6.9,-,N/A,,Clear,220,2013-07-17 01:56:00
10:16 PM,77.0,71.6,83,30.18,10.0,SW,9.2,16.1,N/A,,Clear,230,2013-07-17 02:16:00
10:35 PM,76.1,71.6,86,30.19,10.0,WSW,8.1,16.1,N/A,,Clear,250,2013-07-17 02:35:00
10:56 PM,76.5,71.6,85,30.20,10.0,West,8.1,-,N/A,,Clear,260,2013-07-17 02:56:00
11:16 PM,76.3,71.8,86,30.20,10.0,WSW,9.2,16.1,N/A,,Clear,240,2013-07-17 03:16:00
11:35 PM,76.1,72.0,87,30.20,10.0,WSW,9.2,16.1,N/A,,Clear,240,2013-07-17 03:35:00
11:56 PM,76.3,71.8,86,30.20,10.0,WSW,13.8,18.4,N/A,,Clear,250,2013-07-17 03:56:00